Wetbulb
53.20 53.48 53.69 54.38 55.10 55.89 55.92 56.47 57.40 58.96 59.77 60.63 58.24 61.29 66.73 68.78 70.49 70.70 71.81 70.99 72.15 73.06 72.14 71.75 71.69 70.98 69.23 68.98 70.07 69.80 68.85 67.56 68.77 66.84 66.78 66.77 67.51 67.38 67.47 67.85 66.85 65.74 66.56
50.18 50.47 51.30 51.92 52.45 52.75 53.56 54.27 54.63 55.84 57.11 58.40 59.93 60.08 61.89 66.53 69.61 70.66 71.10 72.17 72.49 72.73 72.51 72.24 71.64 71.33 69.07 67.27 67.79 67.99 67.88 69.01 69.55 65.50 64.23 60.50 62.96 65.89 66.91 66.87 66.56 66.91 66.73
47.54 48.35 48.54 49.12 49.91 49.95 51.03 51.08 52.28 53.34 54.98 56.21 57.36 58.64 61.43 61.07 66.72 68.54 69.27 70.66 71.87 72.35 72.49 72.32 72.01 71.37 69.98 68.39 66.86 66.68 66.16 64.76 67.93 68.71 63.67 59.96 58.43 62.46 65.23 66.15 65.85 66.08 65.76
46.63 46.70 46.80 46.99 47.61 48.08 49.99 50.50 50.37 50.64 52.23 54.28 54.55 56.08 56.75 58.02 62.91 67.65 68.68 68.98 71.19 71.60 72.39 72.49 72.02 71.40 69.86 68.20 66.69 66.70 66.02 64.97 63.02 65.71 66.76 66.65 64.55 60.47 59.18 63.86 65.23 66.17 65.60
44.86 44.09 44.12 44.51 45.47 46.72 47.03 47.45 47.78 48.32 50.13 51.54 52.11 53.25 55.37 58.08 60.92 62.29 67.86 68.36 69.90 70.54 71.59 71.82 71.32 70.58 69.41 68.62 67.73 66.18 65.60 65.45 64.05 63.35 65.01 66.40 66.06 65.71 62.02 59.72 60.72 63.80 64.64
43.04 42.55 42.81 42.38 42.32 44.05 44.17 44.11 44.77 46.12 47.65 48.45 49.05 49.66 51.86 55.27 57.93 61.01 63.72 65.99 67.76 68.94 70.70 70.36 70.21 69.23 68.38 68.23 68.17 66.88 65.59 65.37 64.48 64.37 64.53 64.04 63.59 63.10 61.74 60.32 61.40 60.80 62.75
40.52 39.77 38.96 38.29 38.54 39.15 40.36 40.01 40.63 41.37 43.75 45.10 46.03 46.55 48.29 51.82 55.32 57.99 61.32 65.49 66.19 67.17 68.50 68.60 67.49 68.33 68.14 67.66 67.90 65.60 65.24 65.28 64.38 63.88 63.63 66.36 65.50 65.87 63.82 62.44 61.64 60.75 62.20
37.52 36.08 35.62 35.63 35.52 35.79 36.61 36.60 36.69 37.88 40.24 41.17 42.19 43.66 45.56 48.56 53.44 57.76 61.25 61.67 66.88 67.95 68.80 68.38 66.70 66.41 68.27 67.00 66.48 65.52 65.22 65.11 64.76 64.16 64.52 65.77 66.82 66.48 64.69 62.14 61.62 59.84 60.89
34.32 33.94 34.25 33.69 33.08 33.68 33.98 34.71 33.93 35.57 37.09 37.44 39.15 40.35 43.94 47.01 50.60 57.33 62.81 64.33 66.61 68.47 68.49 68.19 65.52 65.43 65.66 66.22 65.39 64.52 64.12 64.91 65.05 64.78 64.71 65.98 66.18 67.07 66.43 65.48 62.81 61.76 58.44
32.27 32.35 31.96 31.96 32.50 32.74 33.33 34.38 32.52 33.31 34.12 36.26 38.15 40.67 43.48 47.44 50.80 58.27 63.01 65.56 66.96 68.38 67.19 67.01 65.22 64.65 65.00 64.94 64.83 64.27 64.23 63.69 64.27 64.47 64.07 64.10 66.33 66.17 66.20 65.36 65.15 64.15 61.73
31.79 32.53 32.12 31.30 31.33 32.39 31.82 31.83 31.39 32.02 33.94 35.37 37.98 40.14 45.18 47.57 51.68 59.44 64.36 66.48 66.75 66.31 66.32 66.45 64.69 64.25 64.07 64.34 63.98 63.54 63.38 63.00 63.48 63.80 63.47 63.94 65.57 64.66 63.14 62.89 63.98 63.46 62.30
32.05 32.96 32.10 31.11 31.18 30.91 31.31 30.59 30.87 31.04 32.93 34.39 37.30 41.82 42.97 45.44 48.07 55.63 63.48 65.88 65.31 65.68 66.04 66.30 65.48 64.85 63.51 63.34 63.03 62.66 62.81 62.58 61.61 62.74 62.76 62.18 63.06 63.66 63.28 62.38 61.23 61.02 61.66
31.03 31.01 31.23 30.93 30.77 30.96 30.83 29.98 30.38 30.23 31.86 34.30 35.97 39.29 39.69 41.29 41.31 44.18 47.55 50.04 60.72 61.27 57.94 60.03 56.71 58.15 60.18 61.66 61.83 62.07 61.85 62.43 62.16 62.24 61.10 62.32 62.24 60.83 60.87 62.13 62.06 62.19 61.08
29.24 29.53 29.17 30.16 31.47 31.22 30.91 30.66 29.75 30.41 31.35 33.29 34.09 36.14 36.92 37.62 38.98 40.04 40.58 43.26 44.68 44.12 44.38 43.00 43.03 42.12 41.95 44.82 50.23 58.92 59.82 59.40 59.38 60.15 59.93 60.67 59.97 58.18 55.73 58.43 58.98 60.52 60.67
27.42 27.99 28.59 29.32 30.54 31.35 31.75 31.94 30.58 30.24 30.90 31.29 31.76 33.29 34.80 35.96 35.82 36.64 36.49 37.75 38.68 38.62 40.72 42.32 41.33 40.13 39.93 40.44 42.29 52.16 54.84 55.42 55.48 51.91 51.56 50.34 46.71 42.69 43.69 48.76 51.21 50.82 53.08
25.99 26.88 27.91 28.21 28.75 29.75 32.20 32.92 31.36 30.74 30.86 30.72 30.84 31.64 32.72 33.05 33.70 33.37 33.67 34.68 34.45 34.05 34.76 36.08 36.58 38.27 38.57 38.92 39.79 45.29 46.54 45.11 43.32 42.79 43.12 45.58 44.89 43.29 41.46 40.66 39.92 40.20 44.87
25.27 25.40 26.86 27.58 28.12 30.32 31.62 32.27 32.50 32.05 30.51 30.34 30.80 31.20 31.44 31.11 31.25 31.82 31.86 31.10 31.25 32.27 32.23 32.20 32.58 32.35 33.48 36.25 36.63 36.79 37.65 36.59 35.03 35.06 37.21 39.06 39.26 38.81 40.84 42.10 40.60 38.16 35.73
24.65 24.72 25.96 26.71 27.78 30.27 30.04 31.84 32.28 31.29 29.78 30.02 30.13 30.90 30.93 30.76 31.45 31.34 30.95 30.49 30.61 29.96 29.97 30.49 30.53 30.24 31.47 32.77 33.39 33.66 33.03 32.11 31.47 31.77 32.26 33.58 34.15 34.02 36.12 41.14 41.61 37.75 36.87
24.83 24.78 25.83 26.90 26.90 27.91 29.12 28.94 29.43 29.37 28.53 28.10 29.28 29.96 30.83 30.30 30.21 30.64 30.91 31.33 31.47 30.65 30.02 30.21 29.71 29.32 29.89 31.61 31.35 31.50 31.05 30.30 29.31 30.02 30.86 31.08 31.23 32.42 34.32 38.40 37.67 33.95 32.50
24.57 23.73 24.05 25.43 24.38 26.01 27.62 25.91 25.47 26.11 26.58 28.20 28.56 30.55 30.76 30.25 30.29 30.71 31.15 31.55 32.02 31.65 31.44 30.53 30.98 30.82 29.77 31.70 31.00 29.29 28.51 27.38 27.52 28.87 29.06 30.43 30.66 30.90 31.17 31.28 32.18 31.45 31.02
23.40 24.25 23.37 22.85 24.16 25.40 26.31 24.46 24.14 23.93 27.08 28.37 29.56 28.90 29.90 29.39 29.52 30.12 30.90 31.67 31.57 31.13 31.38 30.85 30.09 29.97 30.19 30.86 31.85 31.10 29.52 28.08 26.78 26.06 25.98 27.62 29.26 30.02 30.23 29.85 28.81 28.02 29.89
24.27 24.08 22.58 22.94 24.75 25.66 25.28 23.72 23.83 25.83 27.09 27.81 27.44 28.51 27.62 29.10 28.79 27.11 28.52 29.35 28.88 29.45 29.09 29.75 29.77 29.85 29.71 29.34 30.00 30.83 30.16 30.39 28.91 28.08 28.95 29.50 29.40 29.03 28.59 27.97 28.18 27.97 27.86
25.19 25.78 23.88 23.41 24.73 26.12 25.71 23.59 25.31 27.05 26.52 27.61 26.88 27.60 29.00 27.06 27.55 26.83 24.53 24.83 26.71 26.31 26.93 26.89 27.80 28.51 29.09 28.60 27.93 28.80 29.42 29.43 30.31 30.89 30.34 30.25 30.32 29.85 29.70 28.93 28.27 28.36 27.51
24.92 26.25 25.76 24.13 23.40 25.83 26.55 26.58 26.55 27.92 27.57 26.73 27.68 28.74 27.50 28.77 26.67 26.45 26.13 22.45 21.88 22.82 23.02 24.17 22.32 24.67 25.94 26.42 27.45 27.56 29.44 29.19 30.54 31.35 32.04 30.93 30.31 30.35 30.53 30.08 30.35 31.48 30.45
25.79 26.02 25.30 24.98 24.22 25.36 26.64 27.22 27.87 27.73 28.43 28.40 28.14 29.02 28.41 28.40 28.40 24.57 23.71 23.01 22.29 21.58 21.12 21.54 23.53 20.45 20.53 22.79 24.71 25.63 26.22 28.90 29.39 30.46 30.27 28.54 28.34 27.80 28.34 28.67 28.50 28.79 28.80
27.54 26.95 26.63 26.17 25.80 25.66 25.57 26.57 27.12 27.43 26.57 26.44 27.22 26.93 27.40 27.37 27.41 26.73 26.33 24.62 23.66 22.74 21.98 21.48 21.26 22.44 21.83 22.52 23.70 25.04 25.41 25.66 27.37 27.49 25.69 25.17 25.48 25.17 24.95 25.19 25.40 26.02 25.41
MSLP
1007.44 1008.49 1009.26 1009.62 1009.70 1009.54 1009.44 1008.92 1008.46 1008.11 1007.58 1006.60 1005.75 1005.25 1004.74 1004.97 1004.84 1005.27 1005.24 1005.48 1005.86 1006.35 1007.40 1007.54 1008.33 1008.92 1009.28 1009.60 1010.32 1010.37 1011.00 1011.35 1011.80 1012.47 1012.58 1012.90 1013.12 1013.33 1013.32 1013.13 1013.23 1013.81 1014.15
1008.82 1009.54 1010.03 1010.26 1010.37 1010.19 1010.04 1009.85 1009.26 1008.69 1008.23 1007.34 1006.41 1005.35 1004.44 1003.77 1003.76 1004.25 1004.49 1004.80 1004.90 1005.24 1005.97 1006.43 1006.66 1007.80 1008.48 1009.39 1010.05 1010.37 1010.42 1010.73 1011.09 1011.70 1012.25 1012.58 1013.01 1012.74 1012.63 1012.65 1012.77 1013.25 1013.48
1010.08 1010.46 1010.61 1010.73 1010.80 1010.74 1010.46 1010.45 1010.07 1009.41 1008.72 1008.17 1007.52 1006.31 1005.06 1004.13 1002.96 1003.06 1003.67 1003.74 1004.16 1004.25 1004.92 1005.43 1005.66 1006.52 1007.38 1008.09 1009.17 1010.06 1010.18 1010.52 1010.63 1010.74 1011.08 1011.31 1010.88 1010.73 1011.38 1012.07 1012.60 1012.93 1013.42
1011.19 1011.33 1011.36 1011.34 1011.15 1011.05 1010.75 1010.59 1010.51 1010.01 1009.14 1008.47 1007.77 1006.86 1005.57 1003.81 1002.49 1002.32 1002.76 1003.10 1003.10 1003.50 1003.83 1004.53 1005.05 1005.64 1006.62 1007.33 1007.93 1008.97 1009.51 1010.14 1010.25 1010.68 1010.40 1010.07 1009.60 1009.73 1010.15 1011.11 1011.64 1012.24 1012.60
1012.17 1012.31 1012.37 1012.33 1011.97 1011.45 1011.16 1011.20 1010.88 1010.39 1009.54 1008.75 1008.41 1007.45 1006.11 1004.78 1003.49 1002.33 1001.39 1001.82 1002.26 1003.01 1003.05 1003.61 1004.15 1004.80 1005.91 1006.47 1006.98 1008.03 1008.70 1009.02 1009.59 1009.79 1009.88 1010.03 1009.89 1009.99 1010.01 1010.08 1011.02 1011.52 1011.92
1012.99 1013.14 1013.28 1013.15 1012.77 1012.33 1012.04 1011.64 1011.04 1010.29 1009.70 1009.11 1008.45 1007.85 1006.82 1005.39 1003.97 1002.34 1001.10 1000.90 1001.48 1001.96 1002.38 1002.88 1003.34 1004.04 1005.04 1005.73 1006.22 1007.09 1007.90 1008.26 1008.79 1009.18 1009.24 1009.20 1009.38 1009.21 1009.71 1010.12 1010.24 1010.74 1010.75
1014.30 1014.29 1014.20 1014.23 1014.05 1013.45 1012.77 1012.33 1011.61 1010.69 1009.93 1009.14 1008.39 1007.76 1006.86 1005.74 1004.22 1002.90 1001.28 1000.46 1000.51 1000.83 1001.35 1002.27 1002.83 1003.29 1003.97 1004.64 1005.34 1006.30 1006.96 1007.49 1007.96 1008.54 1009.17 1009.00 1008.47 1008.70 1008.82 1009.43 1009.59 1009.72 1009.74
1015.80 1015.89 1015.84 1015.92 1015.47 1014.58 1013.68 1012.86 1012.09 1011.04 1010.14 1009.24 1008.36 1007.51 1006.71 1005.57 1003.93 1002.38 1001.07 999.97 998.63 999.51 1000.33 1001.31 1002.14 1002.64 1003.15 1003.74 1004.51 1005.32 1006.20 1006.68 1007.09 1007.66 1008.22 1008.58 1007.82 1008.05 1008.31 1008.72 1009.09 1009.20 1009.27
1017.21 1017.24 1017.18 1016.87 1015.99 1015.13 1014.22 1013.29 1012.32 1011.03 1010.09 1009.23 1008.01 1007.13 1006.07 1004.83 1003.38 1001.50 1000.16 999.14 998.59 997.94 999.47 1000.39 1001.45 1002.17 1002.52 1003.00 1003.61 1004.25 1005.19 1005.74 1006.22 1006.72 1007.25 1007.13 1007.47 1007.61 1007.81 1008.18 1008.45 1008.73 1008.75
1018.14 1018.07 1017.81 1017.14 1016.52 1015.68 1014.79 1013.65 1012.74 1011.36 1010.18 1009.02 1007.83 1006.36 1004.96 1003.54 1002.42 1000.72 998.93 998.04 997.70 997.41 998.83 999.88 1000.69 1001.31 1001.81 1002.29 1002.92 1003.49 1004.31 1005.16 1005.66 1006.01 1006.32 1006.82 1007.07 1007.15 1007.48 1007.77 1008.16 1008.47 1008.64
1018.53 1018.40 1018.24 1017.84 1017.28 1016.41 1015.03 1013.78 1012.76 1011.43 1010.05 1008.73 1006.92 1005.49 1003.94 1002.56 1001.08 999.37 997.82 997.04 997.13 997.47 998.17 999.12 1000.00 1000.44 1001.19 1001.64 1002.22 1002.85 1003.68 1004.68 1005.22 1005.60 1006.12 1006.03 1006.37 1006.88 1007.27 1007.51 1007.88 1008.17 1008.33
1018.81 1018.70 1018.47 1018.05 1017.23 1016.10 1015.24 1014.04 1012.76 1011.33 1010.00 1008.13 1006.58 1005.41 1004.01 1002.21 1000.05 998.50 997.24 996.26 996.67 997.26 997.63 998.32 999.09 999.60 1000.70 1001.32 1001.84 1002.66 1003.45 1004.28 1004.71 1005.32 1005.66 1006.03 1006.08 1006.65 1006.99 1007.52 1007.72 1007.99 1008.07
1019.45 1018.97 1018.64 1018.04 1017.20 1016.33 1015.34 1014.26 1013.00 1011.63 1009.94 1008.61 1007.93 1006.19 1004.45 1002.53 1001.13 1000.74 1000.23 999.33 997.92 998.49 999.32 999.05 999.84 1000.40 1000.92 1001.06 1001.49 1002.23 1003.14 1003.82 1004.40 1004.83 1005.27 1005.82 1006.28 1006.80 1007.16 1007.34 1007.38 1007.40 1007.42
1020.47 1019.99 1019.18 1018.46 1017.81 1016.98 1015.88 1014.82 1013.62 1012.53 1011.19 1010.05 1008.85 1006.99 1004.78 1003.46 1003.07 1002.74 1002.01 1001.96 1001.97 1001.43 1001.32 1001.43 1002.26 1002.71 1002.79 1002.59 1002.42 1002.50 1003.10 1003.67 1004.19 1004.83 1005.31 1005.77 1006.46 1007.20 1007.29 1007.43 1007.47 1007.36 1007.21
1021.30 1020.85 1020.24 1019.43 1018.61 1017.44 1016.20 1015.52 1014.82 1013.63 1012.39 1010.71 1009.12 1007.96 1006.56 1005.59 1005.24 1005.06 1004.94 1004.51 1004.13 1004.17 1004.15 1003.79 1003.76 1003.94 1004.11 1004.60 1004.36 1003.56 1003.73 1004.43 1004.80 1005.64 1006.21 1007.10 1007.66 1007.82 1008.27 1008.44 1008.42 1008.38 1008.13
1022.25 1021.78 1021.02 1020.24 1019.34 1018.41 1017.31 1016.32 1015.61 1014.66 1013.43 1012.15 1010.67 1009.67 1008.72 1008.02 1007.69 1007.29 1007.37 1006.55 1006.81 1006.69 1006.38 1006.25 1006.12 1005.69 1006.37 1006.29 1005.64 1005.09 1005.73 1006.00 1006.57 1007.04 1007.58 1007.68 1007.91 1008.28 1008.53 1008.81 1009.04 1009.36 1009.21
1023.22 1022.65 1021.90 1021.30 1020.51 1019.40 1018.39 1017.24 1016.50 1015.73 1014.57 1013.53 1012.71 1011.67 1010.86 1009.36 1009.81 1009.80 1009.46 1008.86 1009.14 1009.35 1008.84 1008.95 1008.71 1008.17 1007.95 1008.29 1007.50 1007.60 1008.18 1008.74 1009.00 1009.28 1009.09 1008.94 1009.29 1009.31 1009.29 1008.94 1008.97 1009.48 1009.70
1024.19 1023.79 1023.21 1022.52 1021.65 1020.46 1019.66 1018.63 1017.59 1016.77 1016.03 1015.11 1014.35 1013.28 1012.09 1012.31 1011.94 1011.71 1011.26 1011.00 1011.42 1011.52 1010.62 1010.71 1010.34 1010.10 1010.09 1009.68 1009.56 1009.41 1010.13 1009.91 1011.61 1010.86 1010.40 1010.50 1010.04 1010.47 1010.06 1009.34 1009.32 1009.93 1009.92
1025.19 1024.89 1024.37 1023.53 1022.67 1021.66 1021.04 1020.19 1019.20 1018.59 1017.87 1017.14 1016.36 1015.66 1015.26 1014.55 1013.97 1013.36 1013.13 1012.52 1013.16 1011.97 1011.56 1012.67 1011.83 1012.46 1010.77 1010.72 1011.24 1010.70 1011.50 1012.57 1012.28 1011.86 1011.67 1011.83 1011.38 1011.28 1010.54 1009.87 1009.92 1010.17 1010.44
1026.05 1025.77 1025.29 1024.62 1024.06 1023.25 1022.29 1021.49 1020.82 1020.11 1019.41 1019.01 1018.60 1017.93 1017.21 1016.66 1016.31 1015.86 1014.92 1014.35 1013.93 1013.27 1012.69 1013.24 1014.40 1013.97 1013.73 1012.17 1013.42 1012.59 1012.91 1013.28 1013.01 1013.43 1013.26 1012.65 1012.48 1012.26 1011.51 1010.95 1010.86 1010.90 1010.98
1026.47 1026.40 1026.23 1025.66 1024.96 1024.33 1023.53 1022.74 1022.17 1021.48 1021.17 1020.52 1019.77 1019.17 1018.63 1018.13 1017.71 1016.91 1016.19 1015.81 1015.37 1015.01 1015.19 1014.75 1014.31 1014.34 1015.43 1015.62 1014.90 1014.27 1014.24 1014.74 1014.66 1013.79 1013.66 1013.96 1013.49 1012.71 1012.35 1012.23 1011.94 1011.75 1011.52
1026.64 1026.68 1026.42 1026.01 1025.58 1025.01 1024.31 1023.74 1023.14 1022.95 1022.24 1021.49 1020.78 1020.21 1019.95 1019.47 1019.08 1018.67 1018.22 1017.65 1017.08 1016.87 1016.94 1016.62 1016.68 1017.25 1017.13 1016.73 1015.61 1016.02 1015.84 1015.29 1014.95 1014.92 1014.83 1014.56 1014.41 1014.16 1013.56 1013.08 1012.72 1012.32 1012.24
1026.56 1026.61 1026.51 1026.40 1026.21 1025.57 1025.07 1024.55 1024.17 1023.52 1022.94 1022.13 1021.58 1021.18 1020.83 1020.75 1020.27 1019.87 1019.81 1019.42 1019.25 1018.99 1018.71 1018.57 1018.31 1018.23 1018.21 1017.77 1017.73 1017.42 1016.76 1016.32 1016.51 1016.28 1015.86 1015.21 1015.02 1014.50 1014.11 1013.73 1013.34 1013.01 1013.18
1026.64 1026.51 1026.31 1026.35 1026.26 1026.02 1025.65 1025.30 1024.85 1024.03 1023.43 1022.94 1022.49 1022.04 1021.68 1021.37 1021.63 1021.45 1021.34 1021.40 1021.12 1020.78 1020.66 1020.37 1020.43 1020.09 1019.76 1019.61 1019.23 1018.66 1017.94 1017.50 1016.86 1016.42 1016.20 1016.02 1015.73 1015.15 1014.55 1014.00 1014.05 1014.00 1014.14
1026.73 1026.68 1026.54 1026.42 1026.45 1026.39 1025.91 1025.66 1025.08 1024.66 1023.87 1023.58 1023.37 1022.84 1022.49 1022.37 1022.16 1022.78 1022.84 1022.92 1023.47 1023.26 1022.78 1022.42 1021.88 1021.74 1021.39 1021.19 1020.50 1019.74 1019.05 1018.32 1017.80 1017.16 1016.85 1016.61 1016.10 1015.67 1015.31 1015.10 1015.18 1015.27 1014.92
1026.39 1026.47 1026.69 1026.74 1026.82 1026.81 1026.59 1026.13 1025.77 1025.23 1024.68 1024.08 1023.73 1023.62 1023.29 1023.07 1022.98 1022.98 1023.08 1023.60 1023.82 1023.90 1024.00 1023.97 1023.69 1023.34 1023.14 1022.37 1021.42 1020.52 1019.83 1019.11 1018.24 1017.76 1017.65 1017.69 1017.45 1017.19 1016.97 1016.58 1016.38 1016.35 1016.10
Wind_Speed
11 12 13 13 14 15 16 16 14 13 10 10 9 11 12 12 11 12 15 16 16 18 18 14 15 15 13 12 12 13 12 8 7 7 7 6 7 9 9 11 8 7 9
11 12 13 14 15 15 16 16 16 14 12 10 11 10 11 12 12 12 14 16 17 17 17 17 14 17 13 13 13 13 10 10 10 9 5 4 5 10 11 10 9 10 8
13 14 15 15 15 16 15 15 17 17 14 14 12 12 13 12 12 13 13 15 17 18 19 20 16 15 13 13 14 13 13 10 8 13 7 6 8 7 9 13 10 10 8
14 16 17 18 18 17 16 15 16 17 16 15 13 16 14 15 12 12 13 13 18 18 19 19 18 15 13 15 15 13 13 10 10 8 11 12 7 6 7 5 9 11 9
15 17 18 20 21 18 17 17 17 17 17 15 15 13 16 14 14 13 17 18 14 20 18 19 17 16 13 16 16 15 16 12 10 10 10 13 11 10 10 6 7 8 9
18 18 19 20 20 19 18 19 19 17 17 16 16 17 19 18 16 16 14 13 13 13 18 19 16 15 15 15 15 15 17 13 12 10 12 10 12 11 8 9 9 9 9
18 20 21 21 21 23 22 18 20 20 18 18 17 17 19 20 21 20 16 15 12 13 16 17 15 14 16 16 15 14 15 16 13 12 9 11 11 11 9 10 9 10 8
17 19 20 19 19 21 22 21 21 20 19 18 18 17 19 12 16 19 17 14 14 14 15 16 16 17 19 16 14 12 12 14 13 16 14 13 10 8 9 8 10 8 9
17 18 19 18 19 19 20 20 20 20 19 18 16 18 17 18 18 23 20 15 20 13 15 16 17 17 16 16 16 12 14 14 14 14 15 11 10 10 9 9 8 10 10
17 17 18 19 19 19 19 19 18 18 18 17 14 14 17 17 18 22 22 19 19 14 14 17 16 15 16 15 15 13 13 14 12 11 13 13 12 10 8 9 8 8 10
16 13 15 17 16 18 17 19 16 19 18 15 15 17 13 14 17 21 19 18 17 14 15 16 15 16 15 14 14 13 12 15 13 11 13 14 12 7 6 5 7 8 8
17 14 15 15 16 17 17 18 17 18 16 14 17 14 12 12 13 16 15 14 15 15 15 16 17 16 12 11 12 11 11 13 16 13 10 10 6 11 8 6 9 9 9
18 19 17 17 17 18 18 18 19 19 18 17 16 13 13 14 19 18 16 18 8 6 8 6 8 5 4 8 8 9 10 11 12 9 7 8 7 8 7 9 10 10 9
17 18 18 18 18 17 16 17 18 18 18 14 16 15 18 21 20 19 21 19 17 17 14 16 15 14 13 12 9 4 7 6 6 5 4 3 3 3 7 6 8 9 9
17 18 17 18 19 19 17 16 16 18 16 16 18 19 20 21 21 21 21 20 20 18 16 13 15 16 16 12 9 6 8 6 8 10 10 9 9 13 7 5 8 9 8
17 18 18 19 20 20 17 17 18 18 17 19 21 20 20 21 21 21 21 21 21 20 19 19 18 17 12 23 23 15 10 12 11 9 10 9 12 12 10 9 5 3 6
15 18 19 18 19 17 18 18 18 17 18 19 19 21 19 23 21 20 19 21 21 18 20 19 18 20 19 24 26 23 14 13 14 13 10 9 9 12 11 9 2 6 6
15 15 15 16 17 18 19 19 20 20 20 22 21 21 23 20 19 18 20 18 16 15 19 17 19 20 19 30 23 20 12 13 11 14 14 11 13 14 12 8 5 5 6
12 12 13 15 17 19 19 18 20 21 21 21 21 20 19 20 18 17 17 17 12 16 18 12 18 19 20 36 30 19 14 11 11 11 16 12 12 19 19 8 4 5 6
10 12 13 14 15 16 17 16 18 19 19 18 18 17 18 18 18 17 16 14 12 13 15 18 14 25 16 33 30 22 10 12 10 10 10 23 18 19 19 10 8 5 7
10 11 11 11 13 14 14 15 16 17 15 15 16 18 18 18 18 17 17 16 16 16 15 16 18 21 21 18 26 27 10 7 7 9 10 9 22 23 20 16 9 8 7
10 11 10 11 12 13 12 14 15 13 13 13 15 15 17 14 13 17 16 17 16 16 15 15 13 12 15 27 27 26 22 17 10 10 8 9 18 18 22 14 19 17 9
8 8 8 10 10 12 12 14 14 11 12 13 14 15 13 15 15 15 16 13 14 13 13 12 12 12 12 13 26 24 23 19 8 6 10 14 15 16 13 20 20 14 9
7 7 9 10 10 10 11 11 12 11 11 13 13 12 13 12 14 12 12 13 13 12 12 11 12 11 12 12 12 12 11 12 10 9 8 9 8 12 10 12 12 9 8
5 7 8 10 11 12 11 12 11 12 11 10 11 11 11 11 10 11 11 11 13 14 12 12 10 12 11 13 18 15 11 10 9 8 7 9 9 10 10 10 10 9 9
7 8 10 11 11 12 13 15 16 15 13 13 11 12 11 11 10 11 9 16 16 19 21 21 17 10 18 23 23 19 18 22 15 8 8 9 9 9 9 9 9 9 11
Wind_Direction
359 345 338 328 327 326 324 319 321 314 305 295 264 246 229 233 221 221 226 211 212 198 203 209 200 195 203 206 205 204 203 205 188 201 216 206 216 219 228 235 225 211 201
324 334 330 330 330 325 322 319 314 313 309 301 291 282 274 235 220 226 222 219 212 201 201 208 205 189 196 198 206 214 205 202 183 194 174 200 235 239 234 240 240 225 223
333 331 329 329 327 321 319 316 314 312 305 306 294 279 273 265 245 214 235 221 221 204 206 207 206 201 192 194 199 202 202 199 208 200 184 204 231 215 202 215 229 211 217
338 335 333 330 330 321 317 316 315 310 305 305 289 279 274 273 245 228 215 237 212 215 208 211 209 202 194 196 196 198 200 196 197 205 221 246 258 227 207 193 206 225 210
344 336 336 332 326 326 324 317 313 305 301 303 297 286 275 273 274 272 216 210 222 219 215 211 209 203 198 203 196 196 200 198 202 203 210 226 238 248 268 222 199 217 220
339 340 337 334 328 327 324 320 313 303 306 299 294 284 280 276 273 275 272 207 214 219 221 214 207 201 200 202 200 196 200 199 204 203 209 210 222 229 215 242 255 206 205
342 339 340 335 329 326 324 319 315 308 305 300 293 286 277 273 268 264 266 249 210 214 216 211 206 202 198 200 196 193 198 201 198 199 206 229 215 230 228 230 241 248 247
344 341 336 329 327 326 324 323 317 310 308 304 297 292 284 272 265 252 256 258 209 216 203 208 208 211 208 197 192 191 201 200 201 197 201 223 226 223 242 228 240 246 242
344 338 338 336 333 330 330 325 320 317 314 309 303 293 281 272 260 255 255 247 260 205 204 199 203 209 207 201 191 191 199 200 201 203 211 211 223 221 223 244 246 246 255
342 344 343 343 339 335 330 331 327 321 318 309 300 292 285 272 259 257 245 239 243 221 200 201 197 199 202 196 192 192 199 200 205 200 203 215 226 222 228 233 244 248 253
349 351 346 342 337 332 338 339 332 332 327 315 319 304 297 286 266 249 244 236 236 222 209 203 194 195 200 194 196 197 191 199 200 201 209 211 213 222 233 240 243 244 241
357 358 350 344 341 348 345 343 339 338 331 326 335 325 325 328 18 3 260 225 224 225 218 211 200 194 193 191 191 191 190 194 202 197 200 213 210 222 221 212 235 231 228
1 358 353 351 352 350 352 348 348 344 342 354 335 347 3 18 32 24 15 26 9 360 25 49 60 77 130 158 162 179 184 196 192 177 185 208 205 224 227 236 245 238 229
2 356 356 354 357 353 354 356 353 353 352 355 358 7 26 32 32 31 31 33 36 46 46 55 54 46 42 36 35 135 146 136 114 130 168 158 246 331 15 332 311 295 268
4 358 358 357 358 360 359 2 4 1 358 7 16 19 30 36 39 38 34 38 38 37 39 46 53 49 40 20 5 31 79 93 79 60 48 51 32 62 47 359 331 322 305
3 360 1 4 3 2 0 8 8 8 9 17 21 24 29 35 40 42 38 41 41 35 38 36 41 46 39 26 30 41 49 58 55 51 36 24 34 8 13 1 314 360 288
7 5 5 6 1 6 3 16 17 13 16 23 24 28 26 38 34 36 40 44 41 38 43 39 38 45 39 33 44 47 51 43 46 37 36 29 24 14 346 331 54 78 50
12 9 5 6 6 11 13 18 22 24 21 23 21 23 29 33 34 33 40 50 37 38 47 40 36 44 40 38 39 53 56 65 34 45 37 27 26 6 343 324 24 40 33
16 16 6 13 9 9 18 19 27 27 23 22 23 24 29 32 28 32 32 42 36 43 49 47 41 38 44 40 33 44 41 49 38 36 36 28 29 15 3 9 56 37 18
24 21 15 16 13 5 11 15 20 20 21 21 23 27 31 33 32 30 31 32 38 43 42 47 45 39 43 40 35 39 39 31 31 33 32 30 29 26 31 32 17 20 8
35 30 28 22 14 5 11 19 19 19 13 16 25 27 28 32 28 29 30 29 35 41 37 39 38 33 32 30 39 36 33 38 26 30 26 25 26 34 35 38 37 31 8
42 35 29 26 16 16 14 19 21 12 11 22 26 32 30 28 33 32 30 29 29 34 34 33 39 34 26 26 26 29 32 29 34 32 25 34 34 37 37 38 37 36 27
40 39 37 28 22 22 22 22 10 13 15 22 31 30 36 34 29 34 31 32 29 31 30 29 22 26 24 24 19 18 21 20 21 23 20 27 31 35 34 40 39 37 25
46 39 45 44 33 23 28 26 16 9 26 28 26 34 30 39 39 35 38 33 27 25 26 27 28 16 20 16 13 11 9 7 9 9 20 17 18 32 37 35 30 31 31
74 56 48 44 44 30 29 25 22 19 23 36 32 28 36 33 45 62 49 50 47 38 28 20 23 21 16 9 5 7 10 5 358 12 24 20 18 21 21 24 30 22 20
58 55 48 43 40 35 28 26 22 21 26 24 28 26 28 28 30 29 46 71 66 55 45 41 34 22 20 11 9 8 21 13 11 33 29 22 18 18 17 18 17 21 16